Estación de Huelquen

Ultimos registro cada 15 minutos 95
Estación Fecha / Hora Temperatura Humedad Lluvia Velocidad Dirección Radiación Presion
95 Huelquen 09-05-2026 23:30 6 83 0 0 181 0 1015,2
94 Huelquen 09-05-2026 23:15 6,1 83 0 0 181 0 1015,3
93 Huelquen 09-05-2026 23:00 6,2 82 0 0 181 0 1015,4
92 Huelquen 09-05-2026 22:45 6,6 81 0 0 181 0 1015,2
91 Huelquen 09-05-2026 22:30 6,8 81 0 0 181 0 1015,4
90 Huelquen 09-05-2026 22:15 7 81 0 0 181 0 1015,1
89 Huelquen 09-05-2026 22:00 7,4 80 0 0 6 0 1015,2
88 Huelquen 09-05-2026 21:45 7,8 80 0 0 193 0 1015
87 Huelquen 09-05-2026 21:30 8,2 79 0 0 205 0 1015
86 Huelquen 09-05-2026 21:15 8,3 79 0 0 181 0 1015,1
85 Huelquen 09-05-2026 21:00 8,6 78 0 0 181 0 1015,1
84 Huelquen 09-05-2026 20:45 9,2 77 0 0 181 0 1015
83 Huelquen 09-05-2026 20:30 9,7 77 0 0 186 0 1014,7
82 Huelquen 09-05-2026 20:15 10,3 75 0 0 181 0 1014,9
81 Huelquen 09-05-2026 20:00 10,9 73 0 0 181 0 1014,8
80 Huelquen 09-05-2026 19:45 11,5 72 0 0 18 0 1014,9
79 Huelquen 09-05-2026 19:30 11,6 73 0 0,4 6 0 1014,9
78 Huelquen 09-05-2026 19:15 11,5 73 0 0 26 0 1014,7
77 Huelquen 09-05-2026 19:00 11,7 72 0 0 213 0 1014,5
76 Huelquen 09-05-2026 18:45 12,6 69 0 0 214 0 1014,4
75 Huelquen 09-05-2026 18:30 13,5 68 0 0 220 0 1014,2
74 Huelquen 09-05-2026 18:15 14,2 67 0 0,4 218 0 1014
73 Huelquen 09-05-2026 18:00 15,4 64 0 0,4 200 0 1014,2
72 Huelquen 09-05-2026 17:45 17,6 58 0 0 203 5 1013,9
71 Huelquen 09-05-2026 17:30 19,9 52 0 0 233 12 1013,5
70 Huelquen 09-05-2026 17:15 22,3 44 0 0 198 40 1013,3
69 Huelquen 09-05-2026 17:00 23 39 0 0 185 79 1013,2
68 Huelquen 09-05-2026 16:45 23,3 36 0 0 271 125 1013,3
67 Huelquen 09-05-2026 16:30 22,7 42 0 0,4 107 169 1013,5
66 Huelquen 09-05-2026 16:15 22,8 40 0 0 107 211 1013,6
65 Huelquen 09-05-2026 16:00 22,7 41 0 0 107 246 1013,7
64 Huelquen 09-05-2026 15:45 22,4 42 0 0,4 117 283 1014
63 Huelquen 09-05-2026 15:30 22,4 40 0 0,9 354 316 1014
62 Huelquen 09-05-2026 15:15 22,7 42 0 1,3 120 352 1014,1
61 Huelquen 09-05-2026 15:00 21,9 43 0 0,4 73 383 1014,1
60 Huelquen 09-05-2026 14:45 21,8 43 0 0,9 359 411 1014,3
59 Huelquen 09-05-2026 14:30 21,5 43 0 0,4 228 439 1014,3
58 Huelquen 09-05-2026 14:15 20,9 46 0 0 319 462 1014,5
57 Huelquen 09-05-2026 14:00 20,2 49 0 0 219 482 1014,7
56 Huelquen 09-05-2026 13:45 19,7 50 0 0,9 275 499 1014,6
55 Huelquen 09-05-2026 13:30 18,9 51 0 0,4 247 512 1014,9
54 Huelquen 09-05-2026 13:15 18,5 53 0 0,4 246 519 1015,3
53 Huelquen 09-05-2026 13:00 18,3 54 0 0,4 226 527 1015,4
52 Huelquen 09-05-2026 12:45 17,8 56 0 1,3 20 531 1015,6
51 Huelquen 09-05-2026 12:30 17,4 58 0 0,4 229 533 1015,8
50 Huelquen 09-05-2026 12:15 16,7 58 0 0 63 529 1016,2
49 Huelquen 09-05-2026 12:00 16,1 60 0 0 291 526 1016,4
48 Huelquen 09-05-2026 11:45 15,4 63 0 0,9 180 513 1016,6
47 Huelquen 09-05-2026 11:30 14,8 62 0 0,9 156 501 1016,7
46 Huelquen 09-05-2026 11:15 14,7 63 0 0 180 483 1016,9
45 Huelquen 09-05-2026 11:00 14,3 64 0 0 271 464 1017,2
44 Huelquen 09-05-2026 10:45 13,9 66 0 0,9 268 445 1017,4
43 Huelquen 09-05-2026 10:30 13,2 70 0 0 10 422 1017,6
42 Huelquen 09-05-2026 10:15 12,4 73 0 0 160 392 1017,9
41 Huelquen 09-05-2026 10:00 11,7 77 0 0 49 362 1017,9
40 Huelquen 09-05-2026 09:45 11,2 83 0 0 54 327 1017,9
39 Huelquen 09-05-2026 09:30 10,1 88 0 0 180 295 1018,1
38 Huelquen 09-05-2026 09:15 9,1 90 0 0 60 251 1018,2
37 Huelquen 09-05-2026 09:00 8,6 93 0 0 5 214 1018,1
36 Huelquen 09-05-2026 08:45 7,4 94 0 0 49 179 1018
35 Huelquen 09-05-2026 08:30 5,6 93 0 0 12 139 1017,7
34 Huelquen 09-05-2026 08:15 3,6 91 0 0 12 97 1017,3
33 Huelquen 09-05-2026 08:00 3,1 88 0 0 12 18 1017
32 Huelquen 09-05-2026 07:45 3,2 88 0 0 12 11 1017
31 Huelquen 09-05-2026 07:30 3,4 87 0 0 12 7 1017
30 Huelquen 09-05-2026 07:15 3,6 88 0 0 12 0 1016,9
29 Huelquen 09-05-2026 07:00 3,8 87 0 0 12 0 1016,9
28 Huelquen 09-05-2026 06:45 4,3 87 0,2 0 12 0 1017,1
27 Huelquen 09-05-2026 06:30 4,8 88 0 0 12 0 1017
26 Huelquen 09-05-2026 06:15 5 88 0 0 12 0 1016,9
25 Huelquen 09-05-2026 06:00 4,9 88 0 0 51 0 1016,9
24 Huelquen 09-05-2026 05:45 4,9 88 0 0 52 0 1016,8
23 Huelquen 09-05-2026 05:30 4,8 88 0 0 19 0 1016,7
22 Huelquen 09-05-2026 05:15 4,4 87 0 0 24 0 1016,7
21 Huelquen 09-05-2026 05:00 4,6 87 0 0 73 0 1016,6
20 Huelquen 09-05-2026 04:45 4,6 86 0 0 73 0 1016,5
19 Huelquen 09-05-2026 04:30 4,9 86 0 0 35 0 1016,6
18 Huelquen 09-05-2026 04:15 5,1 86 0 0 35 0 1016,5
17 Huelquen 09-05-2026 04:00 5,4 86 0 0 34 0 1016,6
16 Huelquen 09-05-2026 03:45 5,4 86 0 0 35 0 1016,7
15 Huelquen 09-05-2026 03:30 5,5 86 0 0 35 0 1016,7
14 Huelquen 09-05-2026 03:15 5,3 86 0 0 115 0 1016,8
13 Huelquen 09-05-2026 03:00 5,3 86 0 0 139 0 1016,8
12 Huelquen 09-05-2026 02:45 5,2 85 0 0 134 0 1017
11 Huelquen 09-05-2026 02:30 5,6 85 0 0 131 0 1017,3
10 Huelquen 09-05-2026 02:15 5,7 86 0 0 142 0 1017,5
9 Huelquen 09-05-2026 02:00 5,1 84 0 0 62 0 1017,3
8 Huelquen 09-05-2026 01:45 5,3 84 0 0 62 0 1017,1
7 Huelquen 09-05-2026 01:30 5,4 83 0 0 45 0 1017,1
6 Huelquen 09-05-2026 01:15 5,7 83 0 0 39 0 1017
5 Huelquen 09-05-2026 01:00 6,1 83 0 0 34 0 1017,1
4 Huelquen 09-05-2026 00:45 6,2 82 0 0 34 0 1017,2
3 Huelquen 09-05-2026 00:30 6,7 81 0 0 33 0 1017,2
2 Huelquen 09-05-2026 00:15 7,3 81 0 0 33 0 1017,3
1 Huelquen 09-05-2026 00:00 7,6 81 0 0 33 0 1017,5